Location: Lucerne
(35.0715°N, 90.5582°W)
Time: 11:50:43
(UTC+00:00)

Daily predictions for brighter satellites

Satellite Brightness Start Highest point End
(mag) Time Altitude Azimuth Time Altitude Azimuth Time Altitude Azimuth
Cosmos 2221 3.6 12:05:33 10° N 12:09:29 43° E 12:13:26 10° SSE
OAO 2 Rocket 3.4 12:05:30 10° W 12:10:40 84° S 12:15:47 10° E
Cosmos 1758 Rocket 3.6 12:08:17 10° SSW 12:12:37 55° W 12:16:56 10° N
Meteor 2-20 Rocket 4.4 12:08:35 10° NNW 12:14:04 51° W 12:19:35 10° SSW
Cosmos 1484 Rocket 3.0 12:11:52 10° N 12:14:59 35° WNW 12:18:03 10° SW
BREEZE-M DEB (TANK) 4.2 12:12:16 10° SW 12:16:43 86° SE 12:35:31 10° NE
BREEZE-M DEB (TANK) 3.0 12:16:57 10° SW 12:22:07 86° NW 12:24:38 10° NE
Helios 1A Rocket 3.6 12:20:10 10° SSW 12:22:56 24° W 12:25:45 10° NW
Cosmos 1437 Rocket 3.9 12:20:01 10° N 12:23:18 39° ENE 12:26:35 10° SSE
ISS -2.5 12:21:11 10° SSW 12:24:25 46° SE 12:27:40 10° ENE
[s.n.66875] 1.4 12:25:15 10° WSW 12:27:46 78° SSE 12:30:19 10° ENE
[s.n.66873] 1.4 12:25:57 10° WSW 12:28:29 79° SSE 12:31:01 10° ENE
[s.n.66876] 1.4 12:26:25 10° WSW 12:28:56 80° SSE 12:31:29 10° ENE
[s.n.66874] 1.3 12:27:13 10° WSW 12:29:45 82° SSE 12:32:18 10° ENE
OAO 3 Copernicus 4.3 12:25:24 10° W 12:30:26 88° S 12:35:28 10° E
[s.n.66872] 1.3 12:28:00 10° WSW 12:30:33 84° SSE 12:33:06 10° ENE
Cosmos 2360 Rocket 2.3 12:25:26 10° NNW 12:30:58 62° WSW 12:36:29 10° S
[s.n.66871] 1.3 12:28:33 10° WSW 12:31:05 85° SSE 12:33:39 10° ENE
[s.n.66870] 1.3 12:29:22 10° WSW 12:31:54 87° SSE 12:34:28 10° ENE
Tiangong 0.4 12:30:37 10° WSW 12:31:55 12° SW 12:33:13 10° SSW
[s.n.66869] 1.3 12:30:10 10° WSW 12:32:42 88° SSE 12:35:16 10° ENE
[s.n.66868] 1.3 12:30:47 10° WSW 12:33:19 90° SSE 12:35:53 10° ENE
COSMO-SKYMED 1 3.8 12:30:37 10° SW 12:33:40 20° W 12:36:44 10° NW
Cosmos 405 Rocket 3.9 12:31:45 10° WSW 12:33:54 16° WNW 12:36:04 10° NNW
CZ-2D R/B 2.7 12:30:54 10° N 12:34:05 86° W 12:37:14 10° SSW
[s.n.66867] 1.3 12:31:35 10° WSW 12:34:07 89° NNW 12:36:41 10° ENE
OAO 3 Rocket 3.2 12:32:18 10° W 12:36:58 83° S 12:41:43 10° E
Cosmos 2333 Rocket 2.9 12:31:56 10° NW 12:37:06 35° WSW 12:42:12 10° SSW
Cosmos 1354 Rocket 4.0 23:09:40 10° SSW 23:14:56 84° ESE 23:20:12 10° NNE
Cosmos 1980 Rocket 2.8 23:12:47 10° S 23:17:59 39° ESE 23:23:10 10° NE
Cosmos 1743 2.2 23:15:13 10° N 23:18:28 88° E 23:21:40 10° S
GEOS 3 Rocket 4.4 23:15:53 10° NNE 23:21:06 52° NW 23:26:14 10° SW
SJ-12 4.4 23:18:08 10° SE 23:21:29 31° ENE 23:24:50 10° N
CORIOLIS 4.1 23:18:07 10° SSE 23:23:23 67° ENE 23:28:41 10° N
Okean 1-7 Rocket 3.7 23:19:53 10° N 23:24:08 49° E 23:28:20 10° SSE
YAOGAN 1 4.3 23:23:07 10° E 23:24:27 11° ENE 23:25:48 10° NE
Cosmos 1602 Rocket 3.5 23:20:24 10° N 23:24:46 80° E 23:29:04 10° S
Cosmos 1898 Rocket 4.5 23:21:31 10° SSE 23:25:43 26° E 23:29:56 10° NE
IRIDIUM 104 4.3 23:24:30 10° N 23:29:45 80° E 23:34:57 10° S
SAR-Lupe-4 3.8 23:27:59 10° SSE 23:31:21 43° ENE 23:34:45 10° N
Meteor 1-25 Rocket 4.3 23:26:37 10° N 23:32:20 59° E 23:37:57 10° SSE
IGS 5A 4.3 23:29:05 10° S 23:32:55 52° W 23:36:48 10° NNW
SKYMED 2 4.3 23:29:48 10° NNE 23:33:43 32° E 23:37:36 10° SSE
Cosmos 2263 Rocket 3.3 23:30:15 10° N 23:34:37 22° ENE 23:38:58 10° ESE
Cosmos 2151 3.1 23:31:02 10° N 23:35:12 78° W 23:39:21 10° S
Cosmos 372 Rocket 4.4 23:32:09 10° S 23:37:01 43° ESE 23:41:51 10° NNE
SL-16 R/B 4.0 23:31:37 10° N 23:37:10 36° WNW 23:42:41 10° SW
IRIDIUM 114 4.4 23:33:39 10° N 23:38:53 83° W 23:44:05 10° S
IRS-1C 4.1 23:35:06 10° SSE 23:40:22 67° ENE 23:45:39 10° N
NOSS 2-3 (C) 3.6 23:37:46 10° SW 23:41:17 55° WNW 23:44:43 10° NNE
SAR-Lupe-1 4.1 23:38:57 10° SSE 23:42:26 53° ENE 23:45:58 10° N
Cosmos 1937 Rocket 4.4 23:39:45 10° SSE 23:44:06 28° E 23:47:52 13° NE
Helios 1A Rocket 4.0 23:46:13 17° E 23:46:53 17° E 23:49:13 10° SE
Cosmos 1953 Rocket 4.1 23:44:35 10° N 23:48:44 37° E 23:52:51 10° SSE
MOS 1 Rocket 3.4 23:44:46 10° SSE 23:49:31 64° ENE 23:54:33 10° N
Cosmos 2227 Rocket 2.2 23:46:16 10° NNW 23:51:48 55° ENE 23:57:19 10° SE
Cosmos 2084 Rocket 3.3 23:48:05 10° NNW 23:52:17 71° ENE 23:56:27 10° SE
EXPRESS MD2 3.6 23:50:56 10° W 23:53:07 32° NNW 23:55:08 16° NNE
CZ-2D R/B 4.2 23:52:23 10° SE 23:56:03 30° ENE 23:59:42 10° N
